RA73890 UUWW-UWKD

Flight info

Callsign RA73890
Flight time 1h 17m
Altitude 35000
Route KOGOM3D KOGOM L94 EKPIR M864 INKEB L94 UNORO T788 KOROM KOROM1T
Aircraft B737/M-SDE2E3FGHIRWXY/LB1

Departure

Time 2026-04-28 14:23
Airport Vnukovo International Airport (UUWW)

Arrival

Time 2026-04-28 15:40
Airport Kazan International Airport (UWKD)
Time Latitude Longitude Altitude Speed Heading
2026-04-28 13:39 55.60046 37.28590 698 ft 0 kts 315°
2026-04-28 14:10 55.60043 37.28595 698 ft 1 kts 315°
2026-04-28 14:10 55.60033 37.28613 698 ft 2 kts 315°
2026-04-28 14:10 55.60023 37.28630 698 ft 1 kts 340°
2026-04-28 14:10 55.60009 37.28628 698 ft 1 kts 35°
2026-04-28 14:11 55.60004 37.28621 698 ft 1 kts 51°
2026-04-28 14:11 55.60002 37.28616 698 ft 0 kts 46°
2026-04-28 14:13 55.60003 37.28617 698 ft 0 kts 46°
2026-04-28 14:14 55.60005 37.28620 698 ft 1 kts 39°
2026-04-28 14:14 55.60019 37.28645 698 ft 3 kts 44°
2026-04-28 14:15 55.60048 37.28697 698 ft 8 kts 46°
2026-04-28 14:15 55.60095 37.28783 698 ft 9 kts 46°
2026-04-28 14:15 55.60108 37.28858 698 ft 6 kts 138°
2026-04-28 14:15 55.60044 37.28893 698 ft 10 kts 166°
2026-04-28 14:16 55.59990 37.28916 698 ft 9 kts 166°
2026-04-28 14:16 55.59936 37.28939 698 ft 5 kts 166°
2026-04-28 14:16 55.59930 37.28942 698 ft 0 kts 166°
2026-04-28 14:21 55.59913 37.28949 698 ft 5 kts 167°
2026-04-28 14:21 55.59861 37.28970 698 ft 10 kts 167°
2026-04-28 14:22 55.59795 37.28971 698 ft 9 kts 222°
2026-04-28 14:22 55.59768 37.28868 698 ft 9 kts 248°
2026-04-28 14:22 55.59702 37.28574 698 ft 56 kts 249°
2026-04-28 14:22 55.59473 37.27562 698 ft 116 kts 248°
2026-04-28 14:23 55.59129 37.26038 1060 ft 136 kts 250°
2026-04-28 14:23 55.58774 37.24624 1880 ft 127 kts 250°
2026-04-28 14:23 55.58269 37.23308 2405 ft 142 kts 240°
2026-04-28 14:23 55.57646 37.21846 2885 ft 155 kts 244°
2026-04-28 14:24 55.57005 37.20197 3385 ft 171 kts 244°
2026-04-28 14:24 55.56297 37.18396 3864 ft 189 kts 243°
2026-04-28 14:24 55.55521 37.16421 4433 ft 203 kts 245°
2026-04-28 14:24 55.54844 37.14153 4977 ft 212 kts 261°
2026-04-28 14:25 55.54793 37.11624 5732 ft 210 kts 279°
2026-04-28 14:25 55.54881 37.09053 6571 ft 211 kts 279°
2026-04-28 14:25 55.55208 37.06532 6934 ft 211 kts 300°
2026-04-28 14:25 55.56158 37.04611 6961 ft 208 kts 320°
2026-04-28 14:26 55.57376 37.03128 6962 ft 213 kts 329°
2026-04-28 14:26 55.58822 37.02461 6959 ft 224 kts 354°
2026-04-28 14:26 55.60392 37.02710 6953 ft 228 kts
2026-04-28 14:26 55.61900 37.03661 6940 ft 237 kts 23°
2026-04-28 14:27 55.63209 37.05593 6950 ft 256 kts 43°
2026-04-28 14:27 55.64101 37.08469 6950 ft 282 kts 65°
2026-04-28 14:27 55.64360 37.12046 6955 ft 297 kts 86°
2026-04-28 14:27 55.64297 37.15667 6949 ft 296 kts 86°
2026-04-28 14:28 55.64212 37.19350 6940 ft 300 kts 91°
2026-04-28 14:28 55.63785 37.22991 7092 ft 312 kts 103°
2026-04-28 14:28 55.63097 37.26672 7792 ft 313 kts 106°
2026-04-28 14:28 55.62397 37.30349 7963 ft 313 kts 105°
2026-04-28 14:29 55.61727 37.33963 7943 ft 307 kts 105°
2026-04-28 14:29 55.61068 37.37546 7949 ft 306 kts 104°
2026-04-28 14:29 55.60406 37.41159 7948 ft 308 kts 104°
2026-04-28 14:29 55.59750 37.44727 7948 ft 307 kts 105°
2026-04-28 14:30 55.59079 37.48372 7947 ft 308 kts 105°
2026-04-28 14:30 55.58418 37.51969 7948 ft 307 kts 104°
2026-04-28 14:30 55.57749 37.55576 7944 ft 309 kts 105°
2026-04-28 14:30 55.57060 37.59152 7951 ft 307 kts 105°
2026-04-28 14:31 55.56614 37.62806 7968 ft 306 kts 88°
2026-04-28 14:31 55.56665 37.66261 8326 ft 307 kts 81°
2026-04-28 14:31 55.56759 37.69791 8969 ft 304 kts 83°
2026-04-28 14:31 55.56817 37.73591 9485 ft 306 kts 84°
2026-04-28 14:32 55.56872 37.77366 9936 ft 309 kts 83°
2026-04-28 14:32 55.56930 37.81050 10218 ft 318 kts 84°
2026-04-28 14:32 55.56965 37.85030 10374 ft 329 kts 85°
2026-04-28 14:32 55.57006 37.89172 10597 ft 338 kts 85°
2026-04-28 14:33 55.57055 37.93324 11076 ft 337 kts 85°
2026-04-28 14:33 55.57103 37.97516 11523 ft 339 kts 85°
2026-04-28 14:33 55.57148 38.01637 11966 ft 341 kts 85°
2026-04-28 14:33 55.57191 38.05848 12389 ft 343 kts 85°
2026-04-28 14:34 55.57255 38.14299 13320 ft 345 kts 86°
2026-04-28 14:34 55.57262 38.18570 13690 ft 350 kts 86°
2026-04-28 14:34 55.57305 38.22927 13750 ft 349 kts 85°
2026-04-28 14:35 55.57369 38.27178 13746 ft 345 kts 85°
2026-04-28 14:35 55.57423 38.31441 13751 ft 346 kts 85°
2026-04-28 14:35 55.57462 38.35706 13750 ft 349 kts 85°
2026-04-28 14:35 55.57506 38.39984 13747 ft 346 kts 83°
2026-04-28 14:36 55.57787 38.44192 13744 ft 345 kts 73°
2026-04-28 14:36 55.58567 38.48173 13867 ft 344 kts 58°
2026-04-28 14:36 55.59721 38.51886 14492 ft 339 kts 54°
2026-04-28 14:36 55.60906 38.55457 14984 ft 341 kts 54°
2026-04-28 14:37 55.62114 38.59096 15433 ft 344 kts 54°
2026-04-28 14:37 55.63345 38.62826 15735 ft 351 kts 54°
2026-04-28 14:37 55.64540 38.66443 16212 ft 351 kts 55°
2026-04-28 14:37 55.65801 38.70265 16672 ft 353 kts 54°
2026-04-28 14:38 55.67053 38.74045 16706 ft 354 kts 54°
2026-04-28 14:38 55.68298 38.77821 16702 ft 351 kts 54°
2026-04-28 14:38 55.69518 38.81535 16700 ft 350 kts 54°
2026-04-28 14:38 55.70739 38.85251 16696 ft 351 kts 54°
2026-04-28 14:39 55.71981 38.89059 16694 ft 351 kts 56°
2026-04-28 14:39 55.73104 38.92941 16689 ft 354 kts 60°
2026-04-28 14:39 55.74018 38.97067 16724 ft 367 kts 65°
2026-04-28 14:39 55.74820 39.01474 16840 ft 380 kts 69°
2026-04-28 14:40 55.75608 39.06018 17041 ft 389 kts 69°
2026-04-28 14:40 55.76149 39.09107 17281 ft 391 kts 69°
2026-04-28 14:40 55.77245 39.15330 17891 ft 392 kts 68°
2026-04-28 14:40 55.78051 39.19923 18347 ft 394 kts 68°
2026-04-28 14:41 55.78869 39.24615 18641 ft 399 kts 69°
2026-04-28 14:41 55.79716 39.29370 19025 ft 401 kts 68°
2026-04-28 14:41 55.80536 39.34080 19418 ft 403 kts 68°
2026-04-28 14:41 55.81363 39.38888 19805 ft 406 kts 68°
2026-04-28 14:42 55.82193 39.43723 20189 ft 409 kts 68°
2026-04-28 14:42 55.83013 39.48511 20563 ft 411 kts 68°
2026-04-28 14:42 55.83854 39.53424 20921 ft 414 kts 69°
2026-04-28 14:42 55.84700 39.58369 21272 ft 417 kts 68°
2026-04-28 14:43 55.85546 39.63368 21569 ft 421 kts 69°
2026-04-28 14:43 55.86360 39.68226 21946 ft 422 kts 69°
2026-04-28 14:43 55.87164 39.72973 22273 ft 424 kts 69°
2026-04-28 14:43 55.87837 39.76933 22544 ft 425 kts 69°
2026-04-28 14:44 55.88696 39.81997 22850 ft 428 kts 69°
2026-04-28 14:44 55.89553 39.87071 23144 ft 431 kts 69°
2026-04-28 14:44 55.90419 39.92217 23454 ft 433 kts 70°
2026-04-28 14:44 55.91293 39.97410 23709 ft 437 kts 69°
2026-04-28 14:45 55.92159 40.02602 23996 ft 440 kts 70°
2026-04-28 14:45 55.92879 40.06929 24216 ft 442 kts 70°
2026-04-28 14:45 55.93730 40.12042 24537 ft 443 kts 69°
2026-04-28 14:45 55.94617 40.17366 24877 ft 443 kts 70°
2026-04-28 14:46 55.95490 40.22651 25174 ft 444 kts 69°
2026-04-28 14:46 55.96368 40.27996 25430 ft 446 kts 70°
2026-04-28 14:46 55.97244 40.33342 25712 ft 448 kts 70°
2026-04-28 14:46 55.98117 40.38696 25952 ft 450 kts 70°
2026-04-28 14:47 55.98990 40.44069 26218 ft 452 kts 70°
2026-04-28 14:47 55.99872 40.49507 26477 ft 453 kts 70°
2026-04-28 14:47 56.00752 40.54948 26717 ft 455 kts 71°
2026-04-28 14:47 56.01610 40.60267 26963 ft 457 kts 71°
2026-04-28 14:48 56.02497 40.65814 27145 ft 460 kts 72°
2026-04-28 14:48 56.03253 40.71406 27391 ft 461 kts 76°
2026-04-28 14:48 56.03775 40.77058 27552 ft 465 kts 82°
2026-04-28 14:48 56.04002 40.82856 27776 ft 467 kts 86°
2026-04-28 14:49 56.04083 40.88628 27992 ft 468 kts 88°
2026-04-28 14:49 56.04125 40.94503 28191 ft 469 kts 88°
2026-04-28 14:49 56.04155 41.00359 28398 ft 470 kts 89°
2026-04-28 14:49 56.04179 41.06110 28591 ft 471 kts 89°
2026-04-28 14:50 56.04203 41.12060 28763 ft 474 kts 89°
2026-04-28 14:50 56.04225 41.17898 28966 ft 475 kts 88°
2026-04-28 14:50 56.04245 41.23840 29163 ft 476 kts 88°
2026-04-28 14:50 56.04264 41.29786 29337 ft 478 kts 88°
2026-04-28 14:51 56.04279 41.35758 29524 ft 479 kts 89°
2026-04-28 14:51 56.04293 41.41698 29697 ft 481 kts 89°
2026-04-28 14:51 56.04303 41.47691 29891 ft 482 kts 89°
2026-04-28 14:51 56.04311 41.53616 30108 ft 482 kts 89°
2026-04-28 14:52 56.04316 41.59510 30377 ft 479 kts 89°
2026-04-28 14:52 56.04319 41.65452 30601 ft 479 kts 90°
2026-04-28 14:52 56.04319 41.71056 30795 ft 479 kts 90°
2026-04-28 14:52 56.04315 41.77031 30979 ft 479 kts 90°
2026-04-28 14:53 56.04309 41.83035 31191 ft 479 kts 90°
2026-04-28 14:53 56.04300 41.88907 31401 ft 479 kts 90°
2026-04-28 14:53 56.04289 41.94852 31634 ft 478 kts 90°
2026-04-28 14:53 56.04275 42.00731 31830 ft 478 kts 90°
2026-04-28 14:54 56.04258 42.06663 32016 ft 478 kts 90°
2026-04-28 14:54 56.04239 42.12597 32224 ft 478 kts 91°
2026-04-28 14:54 56.04214 42.18554 32232 ft 479 kts 91°
2026-04-28 14:54 56.04185 42.24496 32472 ft 478 kts 91°
2026-04-28 14:55 56.04157 42.30403 32670 ft 478 kts 91°
2026-04-28 14:55 56.04127 42.36389 32857 ft 478 kts 91°
2026-04-28 14:55 56.04093 42.42339 33050 ft 478 kts 91°
2026-04-28 14:55 56.04057 42.48244 33281 ft 477 kts 91°
2026-04-28 14:56 56.04017 42.54169 33550 ft 476 kts 91°
2026-04-28 14:56 56.03962 42.60096 33829 ft 475 kts 91°
2026-04-28 14:56 56.03891 42.65989 34048 ft 475 kts 92°
2026-04-28 14:56 56.03814 42.71904 34298 ft 474 kts 92°
2026-04-28 14:57 56.03734 42.77773 34494 ft 474 kts 92°
2026-04-28 14:57 56.03566 42.89639 34620 ft 477 kts 92°
2026-04-28 14:58 56.03389 43.01551 34615 ft 475 kts 92°
2026-04-28 14:58 56.03205 43.13325 34625 ft 475 kts 93°
2026-04-28 14:59 56.03007 43.25142 34614 ft 476 kts 93°
2026-04-28 14:59 56.03090 43.36956 34616 ft 476 kts 86°
2026-04-28 15:00 56.03816 43.48735 34627 ft 476 kts 83°
2026-04-28 15:00 56.04644 43.60551 34632 ft 476 kts 83°
2026-04-28 15:01 56.05447 43.72284 34638 ft 476 kts 84°
2026-04-28 15:01 56.06225 43.83972 34637 ft 478 kts 84°
2026-04-28 15:02 56.06998 43.95850 34638 ft 477 kts 84°
2026-04-28 15:02 56.07750 44.07612 34634 ft 477 kts 84°
2026-04-28 15:03 56.08495 44.19488 34636 ft 478 kts 84°
2026-04-28 15:03 56.09226 44.31294 34637 ft 478 kts 85°
2026-04-28 15:04 56.09945 44.43134 34648 ft 478 kts 85°
2026-04-28 15:04 56.10665 44.55180 34654 ft 479 kts 85°
2026-04-28 15:05 56.11257 44.67046 34642 ft 477 kts 90°
2026-04-28 15:05 56.11142 44.79026 34646 ft 477 kts 94°
2026-04-28 15:06 56.10846 44.90843 34652 ft 477 kts 95°
2026-04-28 15:06 56.10551 45.02769 34656 ft 477 kts 95°
2026-04-28 15:07 56.10254 45.14627 34654 ft 477 kts 94°
2026-04-28 15:07 56.09962 45.26448 34662 ft 476 kts 94°
2026-04-28 15:08 56.09670 45.38258 34669 ft 476 kts 94°
2026-04-28 15:08 56.09370 45.50068 34660 ft 478 kts 94°
2026-04-28 15:09 56.09057 45.61968 34657 ft 478 kts 94°
2026-04-28 15:09 56.08728 45.74056 34649 ft 478 kts 95°
2026-04-28 15:10 56.08399 45.85702 34651 ft 478 kts 95°
2026-04-28 15:10 56.08050 45.97681 34655 ft 478 kts 95°
2026-04-28 15:11 56.07694 46.09522 34656 ft 478 kts 95°
2026-04-28 15:11 56.07325 46.21405 34675 ft 478 kts 96°
2026-04-28 15:12 56.06946 46.33222 34672 ft 477 kts 96°
2026-04-28 15:12 56.06504 46.45037 34671 ft 477 kts 98°
2026-04-28 15:13 56.05257 46.56646 34678 ft 472 kts 110°
2026-04-28 15:13 56.03033 46.67708 34679 ft 469 kts 115°
2026-04-28 15:14 56.00661 46.78593 34695 ft 469 kts 116°
2026-04-28 15:14 55.98281 46.89496 34700 ft 470 kts 115°
2026-04-28 15:15 55.95903 47.00400 34712 ft 470 kts 115°
2026-04-28 15:15 55.94729 47.05779 34549 ft 465 kts 115°
2026-04-28 15:15 55.93558 47.11142 34043 ft 463 kts 115°
2026-04-28 15:15 55.92384 47.16502 33320 ft 466 kts 115°
2026-04-28 15:16 55.91197 47.21898 32644 ft 471 kts 116°
2026-04-28 15:16 55.89985 47.27395 32005 ft 475 kts 116°
2026-04-28 15:16 55.88777 47.32878 31524 ft 472 kts 116°
2026-04-28 15:16 55.87582 47.38297 31100 ft 468 kts 116°
2026-04-28 15:17 55.86391 47.43687 30666 ft 464 kts 116°
2026-04-28 15:17 55.85218 47.48982 30291 ft 460 kts 116°
2026-04-28 15:17 55.84044 47.54261 29805 ft 456 kts 116°
2026-04-28 15:17 55.82889 47.59444 29361 ft 451 kts 116°
2026-04-28 15:18 55.81731 47.64626 28867 ft 448 kts 116°
2026-04-28 15:18 55.80588 47.69724 28428 ft 443 kts 117°
2026-04-28 15:18 55.79441 47.74831 27934 ft 439 kts 117°
2026-04-28 15:18 55.78317 47.79819 27467 ft 435 kts 117°
2026-04-28 15:19 55.77194 47.84795 27016 ft 430 kts 117°
2026-04-28 15:19 55.76092 47.89671 26447 ft 425 kts 117°
2026-04-28 15:19 55.74996 47.94511 25775 ft 419 kts 117°
2026-04-28 15:19 55.73935 47.99182 25067 ft 412 kts 117°
2026-04-28 15:20 55.72862 48.03898 24265 ft 406 kts 117°
2026-04-28 15:20 55.71814 48.08495 23415 ft 401 kts 117°
2026-04-28 15:20 55.70782 48.13005 22600 ft 395 kts 117°
2026-04-28 15:20 55.69750 48.17507 21710 ft 391 kts 117°
2026-04-28 15:21 55.68733 48.21932 20880 ft 386 kts 118°
2026-04-28 15:21 55.67721 48.26329 20048 ft 381 kts 118°
2026-04-28 15:21 55.66716 48.30683 19192 ft 377 kts 118°
2026-04-28 15:21 55.65731 48.34947 18398 ft 373 kts 118°
2026-04-28 15:22 55.64754 48.39164 17617 ft 368 kts 118°
2026-04-28 15:22 55.63796 48.43294 16814 ft 364 kts 118°
2026-04-28 15:22 55.62823 48.47441 16060 ft 358 kts 118°
2026-04-28 15:22 55.62185 48.51642 15625 ft 355 kts 99°
2026-04-28 15:23 55.62227 48.55951 15281 ft 346 kts 89°
2026-04-28 15:23 55.62442 48.60141 14997 ft 331 kts 89°
2026-04-28 15:23 55.62609 48.64125 14632 ft 321 kts 91°
2026-04-28 15:23 55.62710 48.68097 14054 ft 319 kts 93°
2026-04-28 15:24 55.62775 48.72108 13479 ft 317 kts 94°
2026-04-28 15:24 55.62823 48.76000 12927 ft 315 kts 94°
2026-04-28 15:24 55.62866 48.79861 12367 ft 313 kts 94°
2026-04-28 15:24 55.62907 48.83598 12151 ft 298 kts 95°
2026-04-28 15:25 55.63053 48.87249 11887 ft 292 kts 84°
2026-04-28 15:25 55.63751 48.90576 11599 ft 289 kts 58°
2026-04-28 15:25 55.65129 48.93051 11310 ft 281 kts 31°
2026-04-28 15:25 55.66853 48.94626 10960 ft 273 kts 13°
2026-04-28 15:26 55.68661 48.95127 10576 ft 259 kts 346°
2026-04-28 15:26 55.70307 48.94350 10306 ft 239 kts 327°
2026-04-28 15:26 55.71776 48.93066 10058 ft 223 kts 314°
2026-04-28 15:26 55.72781 48.91262 9976 ft 194 kts 291°
2026-04-28 15:27 55.73460 48.89166 9882 ft 199 kts 285°
2026-04-28 15:27 55.73880 48.86874 9739 ft 191 kts 268°
2026-04-28 15:27 55.73904 48.84577 9475 ft 185 kts 260°
2026-04-28 15:27 55.73714 48.82336 9082 ft 184 kts 249°
2026-04-28 15:28 55.73150 48.80327 8571 ft 186 kts 236°
2026-04-28 15:28 55.72391 48.78437 8055 ft 190 kts 230°
2026-04-28 15:28 55.71369 48.76996 7605 ft 191 kts 215°
2026-04-28 15:28 55.70248 48.75733 7198 ft 188 kts 218°
2026-04-28 15:29 55.69197 48.74450 6808 ft 184 kts 219°
2026-04-28 15:29 55.68136 48.73173 6415 ft 182 kts 219°
2026-04-28 15:29 55.67108 48.71944 6028 ft 180 kts 219°
2026-04-28 15:29 55.66076 48.70712 5639 ft 179 kts 218°
2026-04-28 15:30 55.65048 48.69487 5249 ft 177 kts 218°
2026-04-28 15:30 55.64032 48.68277 4861 ft 176 kts 218°
2026-04-28 15:30 55.63006 48.67096 4473 ft 177 kts 214°
2026-04-28 15:30 55.61850 48.66285 4082 ft 182 kts 200°
2026-04-28 15:31 55.60595 48.65992 3785 ft 183 kts 187°
2026-04-28 15:31 55.59331 48.66324 3527 ft 189 kts 172°
2026-04-28 15:31 55.58109 48.67280 3268 ft 194 kts 159°
2026-04-28 15:31 55.56988 48.68630 3011 ft 200 kts 148°
2026-04-28 15:32 55.56090 48.70600 2746 ft 210 kts 126°
2026-04-28 15:32 55.55576 48.73001 2673 ft 213 kts 110°
2026-04-28 15:32 55.55330 48.75625 2679 ft 221 kts 104°
2026-04-28 15:32 55.55321 48.78350 2684 ft 226 kts 82°
2026-04-28 15:33 55.55981 48.80904 2690 ft 231 kts 57°
2026-04-28 15:33 55.56943 48.83192 2676 ft 231 kts 47°
2026-04-28 15:33 55.58231 48.84990 2684 ft 241 kts 31°
2026-04-28 15:33 55.59620 48.86568 2667 ft 236 kts 31°
2026-04-28 15:34 55.60979 48.88180 2674 ft 233 kts 32°
2026-04-28 15:34 55.62313 48.89783 2680 ft 234 kts 32°
2026-04-28 15:34 55.63665 48.91404 2678 ft 235 kts 32°
2026-04-28 15:34 55.65009 48.93016 2678 ft 234 kts 32°
2026-04-28 15:35 55.66357 48.94631 2682 ft 233 kts 32°
2026-04-28 15:35 55.68929 48.97801 2667 ft 214 kts 39°
2026-04-28 15:35 55.69844 48.99788 2671 ft 206 kts 71°
2026-04-28 15:36 55.70016 49.02266 2684 ft 198 kts 104°
2026-04-28 15:36 55.69667 49.04560 2670 ft 189 kts 127°
2026-04-28 15:36 55.68938 49.06381 2684 ft 181 kts 137°
2026-04-28 15:36 55.68389 49.08374 2663 ft 181 kts 112°
2026-04-28 15:37 55.67987 49.10404 2542 ft 169 kts 127°
2026-04-28 15:37 55.67345 49.12072 2348 ft 161 kts 141°
2026-04-28 15:37 55.66595 49.13516 2086 ft 158 kts 142°
2026-04-28 15:37 55.65896 49.14959 1885 ft 153 kts 144°
2026-04-28 15:38 55.65183 49.16289 1698 ft 143 kts 141°
2026-04-28 15:38 55.64596 49.17683 1511 ft 143 kts 134°
2026-04-28 15:38 55.64034 49.19123 1238 ft 138 kts 133°
2026-04-28 15:38 55.63519 49.20460 1133 ft 129 kts 133°
2026-04-28 15:39 55.62986 49.21798 1023 ft 135 kts 133°
2026-04-28 15:39 55.62438 49.23217 718 ft 138 kts 130°
2026-04-28 15:39 55.61910 49.24582 536 ft 134 kts 130°
2026-04-28 15:39 55.61388 49.25922 424 ft 127 kts 128°
2026-04-28 15:40 55.60979 49.26963 422 ft 72 kts 123°
2026-04-28 15:40 55.60762 49.27523 422 ft 42 kts 118°
2026-04-28 15:40 55.60638 49.27850 421 ft 27 kts 125°
2026-04-28 15:40 55.60520 49.28152 421 ft 34 kts 125°
2026-04-28 15:41 55.60392 49.28480 421 ft 19 kts 117°
2026-04-28 15:41 55.60448 49.28645 421 ft 16 kts 37°
2026-04-28 15:41 55.60474 49.28679 421 ft 0 kts 35°
2026-04-28 15:42 55.60480 49.28686 421 ft 4 kts 35°
2026-04-28 15:42 55.60538 49.28756 421 ft 15 kts 33°
2026-04-28 15:43 55.60582 49.28939 421 ft 18 kts 95°
2026-04-28 15:43 55.60594 49.29152 421 ft 17 kts 53°
2026-04-28 15:43 55.60690 49.29278 421 ft 17 kts 34°
2026-04-28 15:43 55.60786 49.29395 421 ft 7 kts 34°
2026-04-28 15:44 55.60809 49.29457 421 ft 8 kts 85°
2026-04-28 15:44 55.60779 49.29567 421 ft 11 kts 124°
2026-04-28 15:44 55.60729 49.29697 421 ft 12 kts 124°
2026-04-28 15:44 55.60693 49.29804 421 ft 7 kts 98°
2026-04-28 15:45 55.60722 49.29873 421 ft 7 kts 35°
2026-04-28 15:45 55.60739 49.29894 421 ft 0 kts 33°
2026-04-28 15:45 55.60740 49.29894 421 ft 0 kts 33°